* Astronomy

Members Login
Username 
 
Password 
    Remember Me  
Post Info TOPIC: ARIANE 44L Rocket body re-entry


L

Posts: 131433
Date:
RE: ARIANE 44L Rocket body re-entry
Permalink  
 


Mysterious object falls in the city of Anapurus

A mysterious object fell from the sky this morning in the city of Anapurus-Maranhão, 28km away from Chapadinha. The fall of the object, so far unidentified occurred around 06:00 this morning on the village wells, property of Mr. "Pé de Ferro".
According to information after the crash, that sounded like thunder or lightning, the mysterious object came to the ground. A spherical object about the size of a cooking gas cylinder.

Read more  (Portuguese)



__________________


L

Posts: 131433
Date:
Permalink  
 

Update:
The ARIANE 44L rocket body re-entered the Earths atmosphere on the 22nd February, 2012 @ 09:10 GMT  ± 1 minute.

Inclination: 6.48°
Revolution Number: 17925
Predicted Location:  4°S, 312°E



__________________


L

Posts: 131433
Date:
Permalink  
 

Update:
The ARIANE 44L rocket body is predicted to re-enter the Earths atmosphere on the 22nd February, 2012 @ 07:36 GMT  ± 8 hours.

ARIANE 44L RB
1 24770U 97016C   12052.85126157  .52377226 -30070-4  13145-2 0  4347
2 24770 006.4835 283.5414 0441923 266.2501 257.0149 15.50647434179161

Period:       99.07 minutes
Inclination: 6.48°
Apogee:     1310 km
Perigee:     118 km
Revolution Number: 17924
Predicted Location:  6°S, 307.4°E



__________________


L

Posts: 131433
Date:
Permalink  
 

Update:
The ARIANE 44L rocket body is predicted to re-enter the Earths atmosphere on the 22nd February, 2012 @ 07:30 GMT  ± 15 hours.

ARIANE 44L RB
1 24770U 97016C   12052.39615767  .37059881 -27747-4  13019-2 0  4317
2 24770 006.4889 286.9957 0608496 258.8511 274.7706 15.09264103179096

Period:       102.21 minutes
Inclination: 6.50°
Apogee:     1611 km
Perigee:     116 km
Revolution Number: 17917
Predicted Location:  6.5°S, 289.9°E



__________________


L

Posts: 131433
Date:
Permalink  
 

Update:
The ARIANE 44L rocket body is predicted to re-enter the Earths atmosphere on the 21st February, 2012 @ 20:32 GMT  ± 24 hours.

ARIANE 44L RB
1 24770U 97016C   12050.88171863  .21846855 -23312-4  11267-2 0  4228
2 24770 006.5017 297.6929 0957110 237.2496 214.5735 14.25318040178877

Period:       102.21 minutes
Inclination: 6.50°
Apogee:     1611 km
Perigee:     116 km
Revolution Number: 17917
Predicted Location:  5°S, 135°E



__________________


L

Posts: 131433
Date:
Permalink  
 

Update:
The ARIANE 44L rocket body is predicted to re-enter the Earths atmosphere on the 22nd February, 2012 @ 00:49 GMT  ± 48 hours.

ARIANE 44L RB
1 24770U 97016C   12050.51415509  .18432794 -22519-4  81077-3 0  4196
2 24770 006.5014 300.3538 1032382 232.4747 138.8453 14.08805149178826

Period:       107.57minutes
Inclination: 6.50°
Apogee:     2107 km
Perigee:     122 km
Revolution Number: 17922
Predicted Location:  4.3°S, 341.5°E



__________________


L

Posts: 131433
Date:
Permalink  
 

An ARIANE 44L rocket body that was launched on the 16th April, 1997, from the Kourou launch facility, for the THAICOM 3 and BSAT-1A Satellite missions, is predicted to re-enter the Earths atmosphere on the 21st February, 2012 @ 10:18 GMT  ± 48 hours.

ARIANE 44L RB
1 24770U 97016C   12049.30990263  .17638755 -20520-4  11761-2 0  4136
2 24770 006.4912 307.8660 1210472 216.9521 247.9665 13.65238431178659

Period:       110.23 minutes
Inclination: 6.49°
Apogee:     2353 km
Perigee:     121 km
Revolution Number: -
Predicted Location:  -



__________________
Page 1 of 1  sorted by
 
Quick Reply

Please log in to post quick replies.



Create your own FREE Forum
Report Abuse
Powered by ActiveBoard